#timestamp,LO_Frequency,Hit,StdDev 
1581274815.5,286046996.1,N
1581274835.3,286046995.3,N
1581274855.2,286046997.6,N
1581274875.0,286046996.8,N
1581274875.9,286046996.8,N
1581274895.8,286046996.1,N
1581274915.6,286046995.9,N
1581274935.4,286046995.1,N
1581274955.3,286046994.9,N
1581274975.1,286046997.7,N
1581274976.0,286046997.7,N
1581274995.8,286046995.8,N
1581275015.7,286046995.5,N
1581275035.5,286046997.1,N
1581275055.4,286046997.0,N
1581275075.2,286046996.7,N
1581275095.0,286046997.9,N
1581275095.9,286046997.9,N
1581275115.8,286046999.6,N
1581275135.6,286046998.0,N
1581275155.4,286046998.0,N
1581275175.3,286046999.1,N
1581275195.1,286046999.2,N
1581275215.9,286046998.3,N
1581275235.7,286047001.0,N
1581275255.5,286046998.7,N
1581275275.4,286046996.7,N
1581275295.2,286046997.3,N
1581275315.0,286046996.8,N
1581275315.9,286046996.8,N
1581275335.8,286046996.6,N
1581275355.6,286046997.1,N
1581275375.5,286046996.5,N
1581275395.3,286046997.6,N
1581275415.1,286046995.2,Y
1581275435.9,286047000.4,P
1581275455.7,286047000.7,N
1581275475.5,286046998.6,N
1581275495.4,286046996.6,N
1581275515.2,286047000.9,N
1581275535.1,286047000.7,N
1581275536.0,286047000.7,N
1581275555.8,286046998.5,N
1581275575.6,286046998.3,N
1581275595.5,286046999.4,N
1581275615.3,286046999.5,N
1581275635.1,286046998.8,N
1581275655.9,286046997.3,N
1581275675.7,286046997.3,N
1581275695.6,286046995.0,Y
1581275715.4,286046997.8,P
1581275735.2,286046999.5,N
1581275755.1,286046998.6,N
1581275756.0,286046998.6,N
1581275775.8,286047001.1,N
1581275795.6,286046998.5,N
1581275815.5,286046998.2,N
1581275835.3,286046998.9,N
1581275855.2,286046998.9,N
1581275875.9,286046999.4,N
1581275895.7,286046999.2,N
1581275915.6,286046999.3,N
1581275935.4,286046998.6,N
1581275955.2,286047000.4,N
1581275975.1,286047000.6,N
1581275976.0,286047000.6,N
1581275995.8,286046999.1,N
1581276015.7,286046998.1,N
1581276035.5,286047000.3,N
1581276055.3,286046998.4,N
1581276075.2,286046998.9,N
1581276095.9,286047000.5,N
1581276115.7,286046996.6,Y
1581276135.6,286047001.2,P
1581276155.4,286046998.3,N
1581276175.3,286047000.9,N
1581276195.1,286046998.5,N
1581276196.0,286046998.5,N
1581276215.8,286047000.2,N
1581276235.7,286047000.3,N
1581276255.5,286046999.9,N
1581276275.3,286047000.5,N
1581276295.2,286047000.6,N
1581276315.0,286046999.9,N
1581276315.9,286046999.9,N
1581276335.8,286047002.8,Y
1581276355.6,286047000.2,P
1581276375.4,286047002.8,P
1581276395.3,286047000.2,N
1581276415.1,286046998.5,N
1581276465.9,286047001.2,E
1581276475.8,286046998.5,N
1581276495.6,286047000.6,P
1581276515.5,286047001.9,N
1581276535.3,286047001.9,N
1581276555.1,286046999.9,N
1581276575.9,286046998.8,N
1581276595.7,286046998.2,N
1581276615.6,286046999.0,N
1581276635.4,286046998.2,N
1581276655.2,286047001.2,N
1581276675.1,286046999.2,N
1581276676.0,286046999.2,N
1581276695.8,286046997.1,N
1581276715.6,286046997.7,N
1581276735.5,286046999.6,N
1581276755.3,286046999.3,N
1581276775.2,286046995.1,Y
1581276795.9,286046998.4,P
1581276815.7,286046999.6,N
1581276835.6,286046999.3,N
1581276855.4,286046998.7,N
1581276875.2,286046999.1,N
1581276895.1,286046998.2,Y
1581276896.0,286046998.2,P
1581276915.8,286047000.3,N
1581276935.7,286046999.7,N
1581276955.5,286047000.6,N
1581276975.3,286046998.5,N
1581276995.2,286047000.3,N
1581277015.0,286047002.1,N
1581277015.9,286047002.1,N
1581277035.8,286047002.1,N
1581277055.6,286047001.8,N
1581277075.4,286047004.2,N
1581277095.3,286047005.6,Y
1581277115.1,286047003.3,P
1581277135.8,286047001.7,N
1581277155.7,286047003.9,P
1581277175.5,286047001.9,N
1581277195.4,286047002.1,N
1581277215.2,286047001.4,N
1581277235.0,286046999.8,N
1581277235.9,286046999.8,N
1581277255.8,286047002.7,N
1581277275.6,286047004.3,Y
1581277295.4,286047002.5,P
1581277315.3,286047001.6,P
1581277335.1,286047001.8,P
1581277355.9,286047002.4,Y
1581277375.7,286046999.4,P
1581277395.5,286046997.0,N
1581277415.4,286046995.5,N
1581277435.2,286046995.7,N
1581277455.0,286046995.4,N
1581277455.9,286046995.4,N
1581277475.8,286046996.4,N
1581277495.6,286046995.4,N
1581277515.5,286046995.6,N
1581277535.3,286046997.5,N
1581277555.1,286046995.7,N
1581277575.9,286046995.6,N
1581277595.7,286046996.4,N
1581277615.5,286046994.3,Y
1581277635.4,286046998.4,P
1581277655.2,286046996.7,P
1581277675.1,286046997.3,P
1581277676.0,286046997.3,Y
1581277695.8,286046998.1,P
1581277715.6,286047000.7,N
1581277735.5,286047000.0,N
1581277755.3,286047002.6,N
1581277775.2,286047002.2,N
1581277795.9,286047002.3,N
1581277815.7,286047002.7,N
1581277835.6,286046999.8,N
1581277855.4,286047001.0,N
1581277875.2,286047001.0,N
1581277895.1,286047000.9,N
1581277896.0,286047000.9,N
1581277915.8,286046999.6,N
1581277935.7,286047000.7,N
1581277955.5,286047000.8,N
1581277975.3,286046999.3,N
1581277995.2,286047001.2,N
1581278015.0,286046998.9,N
1581278015.9,286046998.9,N
1581278035.7,286046997.6,N
1581278055.6,286046997.6,N
1581278075.4,286046997.2,N
1581278095.3,286046998.4,N
1581278115.1,286046998.9,N
1581278116.0,286046998.9,N
1581278135.8,286046998.2,N
1581278155.7,286046997.6,N
1581278175.5,286046997.7,N
1581278195.3,286046998.6,N
1581278215.2,286046998.8,N
1581278235.0,286047000.5,N
1581278235.9,286047000.5,N
1581278255.8,286047004.0,N
1581278275.6,286047002.1,N
1581278295.4,286047002.8,N
1581278315.3,286047000.5,N
1581278335.1,286047002.3,N
1581278355.8,286047002.7,N
1581278375.7,286046999.7,N
1581278395.5,286047000.3,N
